レモン-パンスターズ彗星

P/2019 A6 ( Lemmon-PanSTARRS )

English version
Home page
Updated on January 18, 2019

---------------------------------------------------------------------

・ プロフィール

発見日 2018年12月14日、2019年1月7日
発見光度 20.4等、20.7等
発見者 Mt. Lemmon Survey, Pan-STARRS 1 telescope (Haleakala)

・ 軌道要素

Epoch 2018 Aug. 30.0 TT = JDT 2458360.5
T 2018 Aug. 29.32543 TT                                 MPCW
q   1.9381028            (2000.0)            P               Q
n   0.07911295     Peri.  156.30017     +0.16770066     -0.82537706
a   5.3740827      Node   280.26486     +0.79403836     +0.43718699
e   0.6393612      Incl.   33.22096     +0.58427697     -0.35723975
P  12.46
From 49 observations 2018 Dec. 14-2019 Jan. 17, mean residual 0".4.

・ 光度変化

        m1 = 15.5 + 5 logΔ + 10.0 log r

---------------------------------------------------------------------

軌道要素はM.P.E.C. 2019-B46に掲載されたものです。
光度グラフはComet for Windowsで作成したものです。

---------------------------------------------------------------------

Copyright(C) Seiichi Yoshida (comet@aerith.net). All rights reserved.